Weather History for KPHP - February, 2013

Change the Weather History Date:

Monday, February 18, 2013

  Actual Average Record
Temperature  
Mean Temperature 25 °F 26 °F  
Max Temperature 36 °F 39 °F 70 °F (1954)
Min Temperature 13 °F 13 °F -20 °F (1967)
Degree Days  
Heating Degree Days 40 39  
Month to date heating degree days 585 727  
Since 1 July heating degree days 4620 4992  
Cooling Degree Days 0 0  
Month to date cooling degree days 0 0  
Year to date cooling degree days 0 0  
Moisture  
Dew Point 15 °F    
Average Humidity 59    
Maximum Humidity 74    
Minimum Humidity 43    
Precipitation  
Precipitation 0.00 in 0.01 in 1.15 in (1991)
Month to date precipitation 0.09 0.22  
Year to date precipitation 0.62 0.52  
Sea Level Pressure  
Sea Level Pressure 30.02 in    
Wind  
Wind Speed 20 mph (NNW)    
Max Wind Speed 35 mph    
Max Gust Speed 43 mph    
Visibility 10 miles    
Events      
T = Trace of Precipitation, MM = Missing Value Source: NWS Daily Summary

Daily Weather History Graph

Daily Weather History Graph

Search for Another Location

Airport or City:

Trip Planner

Search our weather history database for the weather conditions in past years. The results will help you decide how hot, cold, wet, or windy it might be!

Date:

Astronomy

Feb. 18, 2013 Rise Set
Actual Time 6:40 AM MST 5:20 PM MST
Civil Twilight 6:11 AM MST 5:50 PM MST
Nautical Twilight 5:37 AM MST 6:23 PM MST
Astronomical Twilight 5:04 AM MST 6:57 PM MST
Moon 11:01 AM MST (2/18) 1:28 AM MST (2/18)
Length of Visible Light 11h 38m
Length of Day
10h 39m
First Quarter, 59% of the Moon is Illuminated
Feb 18
First Quarter
Feb 25
Full
Mar 4
Last Quarter
Mar 11
New
Mar 19
First Quarter

Hourly Weather History & Observations

Time (MST) Temp. Windchill Dew Point Humidity Pressure Visibility Wind Dir Wind Speed Gust Speed Precip Events Conditions
12:55 AM 36.0 °F 24.2 °F 26.1 °F 67% 29.74 in 10.0 mi NW 24.2 mph 33.4 mph N/A   Overcast
1:55 AM 36.0 °F 23.5 °F 24.1 °F 62% 29.78 in 10.0 mi NW 27.6 mph 36.8 mph N/A   Overcast
2:55 AM 34.0 °F 22.1 °F 23.0 °F 64% 29.80 in 10.0 mi NW 21.9 mph 33.4 mph N/A   Overcast
3:34 AM 32.0 °F 18.4 °F 21.2 °F 64% 29.81 in 10.0 mi NW 26.5 mph 35.7 mph N/A   Overcast
3:55 AM 32.0 °F 18.9 °F 21.9 °F 66% 29.83 in 10.0 mi NW 24.2 mph 36.8 mph N/A   Overcast
4:55 AM 28.9 °F 14.8 °F 19.0 °F 67% 29.89 in 10.0 mi NNW 24.2 mph 34.5 mph N/A   Overcast
5:55 AM 27.0 °F 11.6 °F 17.1 °F 66% 29.93 in 10.0 mi NW 26.5 mph 34.5 mph N/A   Overcast
6:52 AM 26.6 °F 14.7 °F 17.6 °F 69% 29.91 in 10.0 mi North 15.0 mph 26.5 mph N/A   Overcast
6:55 AM 26.1 °F 14.5 °F 17.1 °F 69% 29.96 in 10.0 mi North 13.8 mph - N/A   Overcast
7:06 AM 24.8 °F 12.4 °F 17.6 °F 74% 29.91 in 10.0 mi NNW 15.0 mph - N/A   Overcast
7:55 AM 25.0 °F 14.8 °F 17.1 °F 72% 29.99 in 10.0 mi North 10.4 mph - N/A   Overcast
8:55 AM 27.0 °F 10.8 °F 14.0 °F 58% 30.01 in 10.0 mi NNW 29.9 mph 40.3 mph N/A   Scattered Clouds
9:27 AM 26.6 °F 10.3 °F 14.0 °F 59% 29.97 in 10.0 mi NNW 29.9 mph 36.8 mph N/A   Mostly Cloudy
9:45 AM 28.4 °F 13.8 °F 14.0 °F 55% 29.98 in 10.0 mi NNW 25.3 mph 33.4 mph N/A   Scattered Clouds
9:55 AM 28.0 °F 13.6 °F 14.0 °F 56% 30.04 in 10.0 mi NNW 24.2 mph 34.5 mph N/A   Partly Cloudy
10:27 AM 28.4 °F 15.1 °F 14.0 °F 55% 30.00 in 10.0 mi NNW 20.7 mph 28.8 mph N/A   Mostly Cloudy
10:37 AM 30.2 °F 18.1 °F 15.8 °F 55% 30.00 in 10.0 mi NNW 18.4 mph 26.5 mph N/A   Overcast
10:55 AM 30.0 °F 17.5 °F 14.0 °F 51% 30.05 in 10.0 mi NNW 19.6 mph 25.3 mph N/A   Overcast
11:55 AM 32.0 °F 19.8 °F 15.1 °F 50% 30.04 in 10.0 mi NNW 20.7 mph - N/A   Clear
12:55 PM 32.0 °F 20.1 °F 14.0 °F 48% 30.04 in 10.0 mi NNW 19.6 mph 25.3 mph N/A   Overcast
1:55 PM 33.1 °F 21.2 °F 14.0 °F 46% 30.03 in 10.0 mi NW 20.7 mph 29.9 mph N/A   Scattered Clouds
2:55 PM 32.0 °F 18.1 °F 12.0 °F 44% 30.05 in 10.0 mi NW 27.6 mph 34.5 mph N/A   Mostly Cloudy
3:55 PM 30.0 °F 14.9 °F 12.0 °F 47% 30.08 in 10.0 mi NNW 29.9 mph 36.8 mph N/A   Partly Cloudy
4:55 PM 27.0 °F 12.5 °F 10.0 °F 49% 30.12 in 10.0 mi NNW 23.0 mph 29.9 mph N/A   Clear
5:55 PM 23.0 °F 9.6 °F 10.0 °F 58% 30.16 in 10.0 mi NNW 16.1 mph - N/A   Scattered Clouds
6:55 PM 21.9 °F 8.2 °F 10.0 °F 60% 30.18 in 10.0 mi NNW 16.1 mph - N/A   Mostly Cloudy
7:55 PM 21.0 °F 7.1 °F 10.0 °F 63% 30.20 in 10.0 mi NNW 16.1 mph - N/A   Mostly Cloudy
8:55 PM 18.0 °F 8.7 °F 9.0 °F 68% 30.22 in 10.0 mi NNW 6.9 mph - N/A   Clear
9:55 PM 16.0 °F 7.4 °F 8.1 °F 71% 30.25 in 10.0 mi NNW 5.8 mph - N/A   Clear
10:55 PM 15.1 °F 2.5 °F 9.0 °F 77% 30.26 in 10.0 mi North 10.4 mph - N/A   Clear
11:55 PM 12.9 °F -1.6 °F 9.0 °F 84% 30.27 in 10.0 mi NNE 12.7 mph - N/A   Clear